Regional Weather Roundup
Issued by NWS Sioux Falls, SD

Home | Current Version | Previous Version | Text Only | Print | Product List | Glossary Off
Versions: 1 2 3 4 5 6 7 8 9 10 11 12 13 14 15 16 17 18 19 20 21 22 23 24 25 26 27 28 29 30 31 32 33 34 35 36 37 38 39 40 41 42 43 44 45 46 47 48 49 50

000
ASUS43 KFSD 011002
RWRFSD

WEATHER ROUNDUP FOR SE SOUTH DAKOTA/SW MINNESOTA/NW IOWA
NATIONAL WEATHER SERVICE SIOUX FALLS SD
500 AM CDT SAT AUG 01 2015

NOTE: "FAIR" INDICATES FEW OR NO CLOUDS BELOW 12,000 FEET WITH NO
SIGNIFICANT WEATHER AND OR OBSTRUCTIONS TO VISIBILITY.


SDZ038>040-050-052>070-011100-
SOUTHEAST SOUTH DAKOTA

CITY           SKY/WX    TMP DP  RH WIND       PRES   REMARKS
BROOKINGS      CLEAR     63  57  82 N3        30.04R
CHAMBERLAIN    PTCLDY    64  63  94 SW3       30.00F
HURON            N/A     63  61  93 NE7       29.99S
MADISON        FAIR      66  66 100 SW9       30.02S
MITCHELL       CLEAR     67  65  93 SW5       29.99F
SIOUX FALLS    CLEAR     69  65  86 SW6       30.00F
WINNER         FAIR      75  60  59 S7        30.02F
YANKTON          N/A     64  63  94 SE6       30.00F VSB 1/4
$$

MNZ071-072-080-081-089-090-097-098-011100-
SOUTHWEST MINNESOTA

CITY           SKY/WX    TMP DP  RH WIND       PRES   REMARKS
FAIRMONT       CLEAR     64  55  72 SW9       30.00F
JACKSON        CLEAR     66  61  82 SW9       30.02F
LUVERNE        CLEAR     61  57  88 CALM      30.02F
MARSHALL       CLEAR     63  57  82 W5        30.01S
MONTEVIDEO     CLEAR     61  55  82 NW6       30.01R
PIPESTONE      CLEAR     61  59  94 SW5       30.01F
REDWOOD FALLS  CLEAR     62  59  90 W7        29.98S
TRACY          CLEAR     66  63  88 SW8       29.99F
WINDOM         CLEAR     63  59  88 CALM      30.02F
WORTHINGTON    CLEAR     64  57  77 SW8       30.03F
$$

IAZ001>003-012>014-020>022-031-032-NEZ013-014-SDZ071-011100-
NORTHWEST IOWA

CITY           SKY/WX    TMP DP  RH WIND       PRES   REMARKS
DENISON        CLEAR     64  63  94 CALM      30.03F
ESTHERVILLE    CLEAR     63  59  87 SW8       30.02F
SIOUX CITY     CLEAR     65  62  90 CALM      30.03F FOG
SPENCER        CLEAR     64  59  83 W3        30.03F
$$

ABBREVIATIONS USED IN REMARKS
   TC - TEMPERATURE IN CELSIUS
  WCI - WIND CHILL INDEX
   HX - HEAT INDEX
  VSB - VISIBILITY




USA.gov is the U.S. government's official web portal to all federal, state and local government web resources and services.